TimeEST,TemperatureF,Dew PointF,Humidity,Sea Level PressureIn,VisibilityMPH,Wind Direction,Wind SpeedMPH,Gust SpeedMPH,PrecipitationIn,Events,Conditions,WindDirDegrees,DateUTC
12:53 AM,30.0,18.0,61,29.87,10.0,SW,4.6,-,N/A,,Clear,230,2013-01-05 05:53:00
1:53 AM,30.0,18.0,61,29.90,10.0,WSW,5.8,-,N/A,,Mostly Cloudy,240,2013-01-05 06:53:00
2:53 AM,32.0,19.0,59,29.91,10.0,SW,6.9,-,N/A,,Overcast,220,2013-01-05 07:53:00
3:53 AM,30.9,18.0,59,29.92,10.0,WSW,4.6,-,N/A,,Partly Cloudy,250,2013-01-05 08:53:00
4:42 AM,30.2,19.4,64,29.93,10.0,North,-9999.0,-,N/A,,Mostly Cloudy,0,2013-01-05 09:42:00
4:53 AM,30.9,19.0,61,29.94,10.0,SSW,4.6,-,N/A,,Overcast,210,2013-01-05 09:53:00
5:43 AM,26.6,17.6,69,29.97,10.0,South,4.6,76.0,N/A,,Squalls,190,2013-01-05 10:43:00
5:53 AM,28.0,18.0,66,29.98,10.0,SSW,3.5,-,N/A,,Partly Cloudy,200,2013-01-05 10:53:00
6:53 AM,28.0,19.0,69,30.02,10.0,SSW,5.8,-,N/A,,Clear,210,2013-01-05 11:53:00
7:53 AM,30.0,19.0,64,30.05,10.0,SW,8.1,-,N/A,,Clear,230,2013-01-05 12:53:00
8:53 AM,33.1,19.9,59,30.09,10.0,SW,11.5,-,N/A,,Clear,230,2013-01-05 13:53:00
9:53 AM,37.9,21.0,51,30.12,10.0,WSW,6.9,18.4,N/A,,Clear,250,2013-01-05 14:53:00
10:53 AM,39.0,21.0,49,30.12,10.0,WNW,18.4,23.0,N/A,,Partly Cloudy,300,2013-01-05 15:53:00
11:53 AM,39.9,19.9,45,30.13,10.0,WNW,16.1,26.5,N/A,,Partly Cloudy,300,2013-01-05 16:53:00
12:53 PM,41.0,19.9,43,30.14,10.0,NW,17.3,21.9,N/A,,Clear,310,2013-01-05 17:53:00
1:53 PM,41.0,19.9,43,30.13,10.0,NW,11.5,18.4,N/A,,Clear,310,2013-01-05 18:53:00
2:53 PM,41.0,18.0,40,30.15,10.0,NNW,9.2,19.6,N/A,,Clear,330,2013-01-05 19:53:00
3:53 PM,39.9,16.0,38,30.18,10.0,NW,4.6,-,N/A,,Clear,320,2013-01-05 20:53:00
4:53 PM,33.1,18.0,54,30.21,10.0,Calm,Calm,-,N/A,,Clear,0,2013-01-05 21:53:00
5:53 PM,28.9,21.0,72,30.23,10.0,Calm,Calm,-,N/A,,Clear,0,2013-01-05 22:53:00
6:53 PM,26.1,19.9,78,30.26,10.0,Calm,Calm,-,N/A,,Clear,0,2013-01-05 23:53:00
7:53 PM,27.0,19.0,72,30.26,10.0,SSW,3.5,-,N/A,,Clear,210,2013-01-06 00:53:00
8:53 PM,21.0,17.1,85,30.24,10.0,Calm,Calm,-,N/A,,Clear,0,2013-01-06 01:53:00
9:53 PM,18.0,15.1,88,30.25,10.0,Calm,Calm,-,N/A,,Clear,0,2013-01-06 02:53:00
10:53 PM,18.0,15.1,88,30.25,10.0,Calm,Calm,-,N/A,,Clear,0,2013-01-06 03:53:00
11:53 PM,21.0,17.1,85,30.22,10.0,Calm,Calm,-,N/A,,Clear,0,2013-01-06 04:53:00